FW4334 Weather Reports


Display with metric or nautical units.
time (UTC)temp
F
wind
direction
speed
MPH
gust
MPH
rain 1hr
in
rain 24hr
in
rain mn
in
humidity
%
barometer
mb
20260505171038 83 136 1.0 4.0 0.00 0.00 0.00 53 1016.9
20260505170536 82 122 0.0 5.0 0.00 0.00 0.00 51 1017.1
20260505170050 82 119 2.0 5.0 0.00 0.00 0.00 52 1017.1
20260505165536 82 123 0.0 3.0 0.00 0.00 0.00 51 1017.1
20260505165038 82 62 1.0 4.0 0.00 0.00 0.00 53 1017.1
20260505164535 82 99 0.0 3.0 0.00 0.00 0.00 53 1017.2
20260505164032 81 77 0.0 3.0 0.00 0.00 0.00 51 1017.2
20260505163531 81 36 1.0 3.0 0.00 0.00 0.00 54 1017.3
20260505163033 80 128 2.0 4.0 0.00 0.00 0.00 56 1017.2
20260505162530 80 346 0.0 5.0 0.00 0.00 0.00 57 1017.1
20260505162028 79 193 0.0 5.0 0.00 0.00 0.00 58 1017.2
20260505161528 79 193 1.0 6.0 0.00 0.00 0.00 58 1017.2
20260505161027 79 136 1.0 4.0 0.00 0.00 0.00 57 1017.3
20260505160526 79 141 1.0 4.0 0.00 0.00 0.00 59 1017.3
20260505153022 78 121 2.0 4.0 0.00 0.00 0.00 58 1017.4
20260505152521 78 122 1.0 4.0 0.00 0.00 0.00 59 1017.3
20260505152021 78 130 1.0 4.0 0.00 0.00 0.00 60 1017.3
20260505151521 78 29 1.0 4.0 0.00 0.00 0.00 62 1017.4
20260505151019 78 103 2.0 5.0 0.00 0.00 0.00 61 1017.3
20260505150520 77 129 2.0 5.0 0.00 0.00 0.00 62 1017.3
20260505140505 74 122 1.0 5.0 0.00 0.00 0.00 71 1017.3
20260505124542 64 360 0.0 0.0 0.00 0.00 0.00 89 1016.8
20260505124041 63 360 0.0 0.0 0.00 0.00 0.00 90 1016.8
20260505123541 62 360 0.0 0.0 0.00 0.00 0.00 92 1016.8
20260505123041 61 360 0.0 0.0 0.00 0.00 0.00 93 1016.8
20260505122546 61 360 0.0 0.0 0.00 0.00 0.00 93 1016.9
20260505122041 60 360 0.0 0.0 0.00 0.00 0.00 93 1016.9
20260505121551 59 360 0.0 0.0 0.00 0.00 0.00 94 1016.9
20260505121040 58 360 0.0 0.0 0.00 0.00 0.00 93 1016.9
20260505120539 58 360 0.0 0.0 0.00 0.00 0.00 93 1016.8
20260505120043 57 360 0.0 0.0 0.00 0.00 0.00 93 1016.8
20260505115544 57 360 0.0 0.0 0.00 0.00 0.00 93 1016.8
20260505115039 57 360 0.0 0.0 0.00 0.00 0.00 93 1016.5
20260505114540 56 360 0.0 0.0 0.00 0.00 0.00 92 1016.4
20260505114039 56 360 0.0 0.0 0.00 0.00 0.00 92 1016.5
20260505113538 56 360 0.0 0.0 0.00 0.00 0.00 92 1016.5
20260505113041 56 360 0.0 0.0 0.00 0.00 0.00 92 1016.7
20260505112538 56 360 0.0 0.0 0.00 0.00 0.00 92 1016.6
20260505112038 55 360 0.0 0.0 0.00 0.00 0.00 92 1016.6
20260505111542 55 360 0.0 0.0 0.00 0.00 0.00 92 1016.6
20260505111037 55 360 0.0 0.0 0.00 0.00 0.00 92 1016.3
20260505110536 55 360 0.0 0.0 0.00 0.00 0.00 91 1016.3
20260505102033 56 124 0.0 0.0 0.00 0.00 0.00 91 1016.0
20260505101535 56 124 0.0 0.0 0.00 0.00 0.00 91 1015.9
20260505101033 56 124 0.0 0.0 0.00 0.00 0.00 91 1015.8
20260505100536 56 124 0.0 0.0 0.00 0.00 0.00 91 1015.7
20260505100034 56 124 0.0 0.0 0.00 0.00 0.00 91 1015.8
20260505095532 56 124 0.0 0.0 0.00 0.00 0.00 91 1015.7
20260505095031 56 124 0.0 0.0 0.00 0.00 0.00 91 1015.7
20260505094535 56 124 0.0 0.0 0.00 0.00 0.00 91 1015.7
20260505094031 56 124 0.0 0.0 0.00 0.00 0.00 91 1015.7
20260505093531 56 124 0.0 0.0 0.00 0.00 0.00 91 1015.7
20260505093039 56 124 0.0 0.0 0.00 0.00 0.00 91 1015.6
20260505092531 56 124 0.0 0.0 0.00 0.00 0.00 91 1015.6
20260505092030 56 123 0.0 0.0 0.00 0.00 0.00 91 1015.5
20260505091530 56 123 0.0 0.0 0.00 0.00 0.00 90 1015.4
20260505091030 56 124 0.0 0.0 0.00 0.00 0.00 90 1015.5
20260505090528 57 123 0.0 0.0 0.00 0.00 0.00 90 1015.3
20260505090028 57 123 0.0 0.0 0.00 0.00 0.00 90 1015.3
20260505085528 57 123 0.0 0.0 0.00 0.00 0.00 91 1015.4
20260505085030 57 123 0.0 0.0 0.00 0.00 0.00 90 1015.3
20260505084528 57 123 0.0 0.0 0.00 0.00 0.00 90 1015.3
20260505084026 57 123 0.0 0.0 0.00 0.00 0.00 90 1015.3
20260505083526 57 133 0.0 0.0 0.00 0.00 0.00 90 1015.3
20260505083028 57 131 0.0 0.0 0.00 0.00 0.00 90 1015.2
20260505082526 57 128 0.0 0.0 0.00 0.00 0.00 90 1015.2
20260505082026 57 125 0.0 0.0 0.00 0.00 0.00 90 1015.3
20260505081530 57 125 0.0 0.0 0.00 0.00 0.00 90 1015.2
20260505081027 57 125 0.0 0.0 0.00 0.00 0.00 90 1015.2
20260505080524 57 125 0.0 0.0 0.00 0.00 0.00 90 1015.0
20260505080024 57 132 0.0 0.0 0.00 0.00 0.00 90 1015.1
20260505075527 57 127 0.0 0.0 0.00 0.00 0.00 90 1015.1
20260505075023 57 125 0.0 0.0 0.00 0.00 0.00 90 1015.3
20260505074523 57 125 0.0 0.0 0.00 0.00 0.00 89 1015.3
20260505074023 58 125 0.0 0.0 0.00 0.00 0.00 89 1015.4
20260505073522 58 125 0.0 0.0 0.00 0.00 0.00 89 1015.4
20260505073025 58 360 0.0 0.0 0.00 0.00 0.00 89 1015.4
20260505072520 58 125 0.0 0.0 0.00 0.00 0.00 89 1015.5
20260505072020 58 124 0.0 0.0 0.00 0.00 0.00 89 1015.5
20260505071520 58 124 0.0 0.0 0.00 0.00 0.00 89 1015.5
20260505071019 58 124 0.0 0.0 0.00 0.00 0.00 89 1015.6
20260505070518 58 124 0.0 0.0 0.00 0.00 0.00 89 1015.6
20260505070018 58 124 0.0 0.0 0.00 0.00 0.00 89 1015.7
20260505065518 58 124 0.0 0.0 0.00 0.00 0.00 89 1015.6
20260505065016 59 124 0.0 0.0 0.00 0.00 0.00 89 1015.7
20260505064517 59 360 0.0 0.0 0.00 0.00 0.00 89 1015.6
20260505064016 59 134 0.0 0.0 0.00 0.00 0.00 88 1015.6
20260505063515 59 132 0.0 0.0 0.00 0.00 0.00 88 1015.6
20260505063015 59 131 0.0 0.0 0.00 0.00 0.00 88 1015.8
20260505062519 59 131 0.0 0.0 0.00 0.00 0.00 88 1015.7
20260505062014 59 130 0.0 0.0 0.00 0.00 0.00 88 1015.8
20260505061613 59 130 0.0 0.0 0.00 0.00 0.00 88 1016.0
20260505061016 59 128 0.0 0.0 0.00 0.00 0.00 88 1016.0
20260505060513 60 128 0.0 0.0 0.00 0.00 0.00 88 1016.2
20260505060023 60 127 0.0 0.0 0.00 0.00 0.00 87 1016.1
20260505055510 60 360 0.0 0.0 0.00 0.00 0.00 87 1016.2
20260505055009 60 128 0.0 0.0 0.00 0.00 0.00 87 1016.1
20260505054512 60 360 0.0 0.0 0.00 0.00 0.00 87 1016.1
20260505054007 60 360 0.0 0.0 0.00 0.00 0.00 87 1016.2
20260505053507 61 360 0.0 0.0 0.00 0.00 0.00 86 1016.3
20260505053006 61 360 0.0 0.0 0.00 0.00 0.00 86 1016.4
20260505052506 61 360 0.0 0.0 0.00 0.00 0.00 86 1016.5
20260505052005 61 360 0.0 0.0 0.00 0.00 0.00 86 1016.4
20260505051506 61 360 0.0 0.0 0.00 0.00 0.00 85 1016.5
20260505051004 61 360 0.0 0.0 0.00 0.00 0.00 85 1016.6
20260505050503 61 360 0.0 0.0 0.00 0.00 0.00 85 1016.7
20260505041554 63 360 0.0 0.0 0.00 0.00 0.00 82 1017.2
20260505041052 64 138 0.0 0.0 0.00 0.00 0.00 82 1017.4
20260505040553 64 126 0.0 0.0 0.00 0.00 0.00 81 1017.3
20260505040052 64 126 0.0 0.0 0.00 0.00 0.00 81 1017.3
20260505035551 64 123 0.0 0.0 0.00 0.00 0.00 80 1017.1
20260505035053 65 138 0.0 0.0 0.00 0.00 0.00 79 1017.2
20260505034550 65 126 0.0 0.0 0.00 0.00 0.00 79 1017.2
20260505034050 66 123 0.0 0.0 0.00 0.00 0.00 78 1017.1
20260505033550 66 123 0.0 0.0 0.00 0.00 0.00 78 1017.2
20260505033109 66 123 0.0 0.0 0.00 0.00 0.00 78 1017.1
20260505032550 66 123 0.0 0.0 0.00 0.00 0.00 77 1017.0
20260505032050 67 123 0.0 0.0 0.00 0.00 0.00 76 1016.9
20260505031550 67 122 0.0 0.0 0.00 0.00 0.00 76 1017.0
20260505031051 67 122 0.0 0.0 0.00 0.00 0.00 76 1017.1
20260505030548 67 122 0.0 0.0 0.00 0.00 0.00 76 1017.0
20260505030048 67 120 0.0 0.0 0.00 0.00 0.00 76 1017.0
20260505025549 67 119 0.0 1.0 0.00 0.00 0.00 76 1017.0
20260505025048 67 119 0.0 1.0 0.00 0.00 0.00 76 1017.0
20260505024547 67 120 0.0 4.0 0.00 0.00 0.00 76 1016.9
20260505024047 67 123 0.0 4.0 0.00 0.00 0.00 75 1016.9
20260505023547 67 119 0.0 3.0 0.00 0.00 0.00 75 1016.8
20260505023058 67 119 0.0 3.0 0.00 0.00 0.00 75 1016.9
20260505022551 68 124 0.0 2.0 0.00 0.00 0.00 75 1016.7
20260505022050 68 122 0.0 3.0 0.00 0.00 0.00 75 1016.8
20260505021547 68 124 0.0 2.0 0.00 0.00 0.00 75 1017.0
20260505021046 68 115 0.0 2.0 0.00 0.00 0.00 75 1016.9
20260505020546 68 132 0.0 3.0 0.00 0.00 0.00 75 1016.9
20260505020050 68 121 0.0 3.0 0.00 0.00 0.00 74 1016.9
20260505015546 68 112 0.0 5.0 0.00 0.00 0.00 74 1016.9
20260505015046 68 121 0.0 2.0 0.00 0.00 0.00 74 1016.8
20260505014546 68 121 0.0 2.0 0.00 0.00 0.00 74 1016.9
20260505014045 69 120 0.0 2.0 0.00 0.00 0.00 73 1016.9
20260505013545 69 120 0.0 2.0 0.00 0.00 0.00 74 1016.8
20260505013045 69 119 0.0 2.0 0.00 0.00 0.00 73 1016.8
20260505012545 69 119 0.0 3.0 0.00 0.00 0.00 73 1016.8
20260505012045 69 119 0.0 3.0 0.00 0.00 0.00 73 1016.6
20260505011544 69 117 0.0 0.0 0.00 0.00 0.00 72 1016.7
20260505011044 69 118 0.0 4.0 0.00 0.00 0.00 72 1016.6
20260505010543 70 111 0.0 4.0 0.00 0.00 0.00 71 1016.6
20260505010044 70 123 0.0 3.0 0.00 0.00 0.00 71 1016.5
20260505005542 70 128 1.0 4.0 0.00 0.00 0.00 71 1016.3
20260505005041 70 117 0.0 3.0 0.00 0.00 0.00 70 1016.3
20260505004547 70 106 0.0 5.0 0.00 0.00 0.00 70 1016.4
20260505004040 70 113 1.0 5.0 0.00 0.00 0.00 69 1016.3
20260505003539 71 123 1.0 3.0 0.00 0.00 0.00 69 1016.2
20260505003040 71 122 1.0 3.0 0.00 0.00 0.00 69 1016.2
20260505002539 71 121 0.0 4.0 0.00 0.00 0.00 69 1016.0
20260505002039 71 128 1.0 4.0 0.00 0.00 0.00 68 1016.0
20260505001538 71 125 1.0 5.0 0.00 0.00 0.00 68 1016.0
20260505001038 72 115 2.0 5.0 0.00 0.00 0.00 68 1016.0
20260505000541 72 360 1.0 4.0 0.00 0.00 0.00 67 1016.2
20260505000037 72 360 1.0 8.0 0.00 0.00 0.00 67 1016.0
20260504235537 72 360 1.0 8.0 0.00 0.00 0.00 66 1016.0
20260504235039 73 121 0.0 7.0 0.00 0.00 0.00 66 1015.8
20260504234558 73 112 3.0 7.0 0.00 0.00 0.00 65 1015.7
20260504234036 73 98 4.0 9.0 0.00 0.00 0.00 65 1015.7
20260504233536 74 101 4.0 9.0 0.00 0.00 0.00 64 1015.8
20260504233036 74 122 1.0 7.0 0.00 0.00 0.00 64 1015.7
20260504232538 74 113 0.0 9.0 0.00 0.00 0.00 64 1015.7
20260504232035 74 115 1.0 9.0 0.00 0.00 0.00 64 1015.5
20260504231548 74 105 0.0 4.0 0.00 0.00 0.00 64 1015.6
20260504231035 74 123 2.0 8.0 0.00 0.00 0.00 64 1015.5
20260504230535 75 119 3.0 8.0 0.00 0.00 0.00 63 1015.3
20260504230035 75 103 1.0 8.0 0.00 0.00 0.00 63 1015.4
20260504225535 75 130 1.0 8.0 0.00 0.00 0.00 62 1015.4
20260504225034 75 126 2.0 7.0 0.00 0.00 0.00 63 1015.4
20260504224533 75 118 1.0 8.0 0.00 0.00 0.00 62 1015.5
20260504224034 75 102 4.0 8.0 0.00 0.00 0.00 61 1015.4
20260504223533 76 123 2.0 6.0 0.00 0.00 0.00 61 1015.5
20260504223033 76 113 1.0 6.0 0.00 0.00 0.00 60 1015.4
20260504222533 76 138 1.0 10.0 0.00 0.00 0.00 60 1015.5
20260504222032 76 121 1.0 10.0 0.00 0.00 0.00 60 1015.6
20260504221533 76 142 2.0 9.0 0.00 0.00 0.00 60 1015.6
20260504221032 76 111 3.0 8.0 0.00 0.00 0.00 59 1015.6
20260504220532 76 96 3.0 8.0 0.00 0.00 0.00 57 1015.7
20260504220032 76 113 1.0 4.0 0.00 0.00 0.00 58 1015.6
20260504215532 76 107 0.0 10.0 0.00 0.00 0.00 58 1015.6
20260504215031 76 164 3.0 9.0 0.00 0.00 0.00 57 1015.6
20260504214538 76 116 4.0 9.0 0.00 0.00 0.00 57 1015.6
20260504214032 76 104 4.0 9.0 0.00 0.00 0.00 56 1015.6
20260504213531 77 112 4.0 9.0 0.00 0.00 0.00 56 1015.5
20260504213031 77 114 4.0 10.0 0.00 0.00 0.00 55 1015.5
20260504212529 77 134 5.0 10.0 0.00 0.00 0.00 54 1015.7
20260504212032 77 123 4.0 8.0 0.00 0.00 0.00 53 1015.7
20260504211528 77 108 2.0 8.0 0.00 0.00 0.00 54 1015.8
20260504211027 78 99 2.0 8.0 0.00 0.00 0.00 53 1015.7
20260504210528 78 120 2.0 8.0 0.00 0.00 0.00 53 1015.8
20260504210027 78 137 2.0 8.0 0.00 0.00 0.00 52 1015.8
20260504205529 78 145 2.0 8.0 0.00 0.00 0.00 50 1015.9
20260504205025 78 126 3.0 8.0 0.00 0.00 0.00 50 1015.9
20260504204551 78 126 2.0 7.0 0.00 0.00 0.00 48 1015.9
20260504204025 78 124 0.0 7.0 0.00 0.00 0.00 50 1015.9
20260504203524 78 113 1.0 9.0 0.00 0.00 0.00 49 1016.0
20260504203027 78 175 3.0 9.0 0.00 0.00 0.00 51 1016.0
20260504202523 78 128 4.0 9.0 0.00 0.00 0.00 49 1016.0
20260504202022 78 115 2.0 7.0 0.00 0.00 0.00 49 1016.1
20260504201522 78 126 3.0 7.0 0.00 0.00 0.00 51 1016.2
20260504201021 78 111 4.0 8.0 0.00 0.00 0.00 49 1016.1
20260504200521 78 114 2.0 9.0 0.00 0.00 0.00 49 1016.1
20260504200028 78 146 1.0 9.0 0.00 0.00 0.00 50 1016.2
20260504195519 78 116 3.0 10.0 0.00 0.00 0.00 48 1016.1
20260504195019 78 117 5.0 10.0 0.00 0.00 0.00 49 1016.2
20260504194520 79 127 2.0 9.0 0.00 0.00 0.00 47 1016.2
20260504194020 79 125 1.0 6.0 0.00 0.00 0.00 48 1016.3
20260504193517 79 128 2.0 7.0 0.00 0.00 0.00 47 1016.4
20260504193022 79 110 2.0 7.0 0.00 0.00 0.00 47 1016.5
20260504192516 79 79 2.0 11.0 0.00 0.00 0.00 47 1016.5
20260504192016 79 109 2.0 11.0 0.00 0.00 0.00 46 1016.5
20260504191515 79 130 2.0 8.0 0.00 0.00 0.00 45 1016.6
20260504191014 79 120 3.0 8.0 0.00 0.00 0.00 45 1016.5
20260504190513 79 134 3.0 7.0 0.00 0.00 0.00 46 1016.8
20260504190013 79 36 0.0 8.0 0.00 0.00 0.00 47 1016.9
20260504185516 79 120 3.0 8.0 0.00 0.00 0.00 46 1016.8
20260504185012 79 123 3.0 8.0 0.00 0.00 0.00 46 1016.9
20260504184511 79 28 1.0 8.0 0.00 0.00 0.00 47 1017.0
20260504184017 79 137 3.0 8.0 0.00 0.00 0.00 46 1016.9
20260504183511 79 121 3.0 8.0 0.00 0.00 0.00 45 1017.1
20260504183109 80 138 3.0 7.0 0.00 0.00 0.00 44 1017.1
20260504182509 79 29 1.0 7.0 0.00 0.00 0.00 46 1017.2
20260504182010 80 109 2.0 8.0 0.00 0.00 0.00 45 1017.3
20260504181510 80 107 1.0 5.0 0.00 0.00 0.00 44 1017.2
20260504181008 80 173 2.0 6.0 0.00 0.00 0.00 44 1017.3
20260504180509 79 128 1.0 7.0 0.00 0.00 0.00 43 1017.3
20260504180007 79 121 3.0 7.0 0.00 0.00 0.00 42 1017.3
20260504175506 79 125 3.0 7.0 0.00 0.00 0.00 42 1017.3
20260504175006 78 61 0.0 6.0 0.00 0.00 0.00 41 1017.3
20260504174505 78 109 3.0 6.0 0.00 0.00 0.00 39 1017.4
20260504174007 79 101 3.0 6.0 0.00 0.00 0.00 39 1017.4
20260504173505 79 120 1.0 6.0 0.00 0.00 0.00 40 1017.5
20260504173006 79 136 2.0 7.0 0.00 0.00 0.00 40 1017.5
20260504172504 80 117 3.0 7.0 0.00 0.00 0.00 40 1017.6
20260504172003 79 103 1.0 4.0 0.00 0.00 0.00 40 1017.5
20260504171511 79 86 1.0 2.0 0.00 0.00 0.00 40 1017.6